Погода в Мурсвилле

США     35°35′04″N   80°48′35″W
темп.,
°C
ветер,
м/с
пор.,
м/с
влажн.,
%
обл.,
%
осадки,
мм/ч
давл.,
гПа
погр.,
м
21 июня, пн
пн2123:00+20с0197100 0.0 101011
02:00+20юз1196100 0.0 100914
05:00+19зюз26979 0.0 1010136
08:00+22зюз36891 0.0 1011211
11:00+30юз46555 0.0 10101151
14:00+33юз57401 0.0 10092258
17:00+34зюз693685 0.0 10072756
20:00+29юз6115510 0.1 1008994
22 июня, вт
вт2223:00+26юз5137118 0.2 1009667
02:00+24юз4117993 0.2 1009612
05:00+23юз5128333 0.2 1009724
08:00+22зюз588569 0.3 1010712
11:00+22юз478699 0.3 1011498
14:00+26з5665100 2.1 10111299
17:00+25ссз3566100 1.4 1012373
20:00+22с4865100 1.5 1014383
23 июня, ср
ср2323:00+20ссв3866100 0.0 1016239
02:00+20ссв495598 0.0 1017321
05:00+15ссв411660 0.0 1018245
08:00+18св49650 0.0 1020309
11:00+24св455887 0.0 10211028
14:00+27всв324598 0.0 10202095
17:00+26вюв3455100 0.0 1020521
20:00+23юв496783 0.0 1021410
24 июня, чт
чт2423:00+19вюв310846 0.0 1023387
02:00+17всв36966 0.0 1024162
05:00+16всв26978 0.0 1024150
08:00+17св477829 0.0 1026365
11:00+23всв56465 0.0 10251050
14:00+27всв44340 0.0 10241675
17:00+28всв34290 0.0 10221993
20:00+23в22482 0.0 102124
25 июня, пт
пт2523:00+18всв22622 0.0 102413
02:00+17юв2281100 0.0 102212
05:00+16с34894 0.0 102365
08:00+19св348598 0.0 1022236
11:00+25св226379 0.0 10231167
14:00+28ююв225295 0.1 10201696
17:00+30ююв2342100 0.0 10181952
20:00+25ю3561100 0.0 1018122